Regional Weather Roundup
Issued by NWS Green Bay, WI

Home | Current Version | Previous Version | Text Only | Print | Product List | Glossary On
Versions: 1 2 3 4 5 6 7 8 9 10 11 12 13 14 15 16 17 18 19 20 21 22 23 24 25 26 27 28 29 30 31 32 33 34 35 36 37 38 39 40 41 42 43 44 45 46 47 48 49 50
000
ASUS43 KGRB 221659
RWRGRB

NORTH-CENTRAL AND NORTHEAST WISCONSIN REGIONAL WEATHER ROUNDUP
NATIONAL WEATHER SERVICE GREEN BAY WI
1200 PM CDT TUE APR 22 2014

WIZ005-009-010>012-018-019-221800-
NORTH CENTRAL WISCONSIN

CITY           SKY/WX    TMP DP  RH WIND       PRES   REMARKS
IRONWOOD       CLOUDY    37  25  60 NW14G21   30.05R
MANITOWISH WTR NOT AVBL
ARBOR VITAE    NOT AVBL
EAGLE RIVER    NOT AVBL
LAND O LAKES   NOT AVBL
RHINELANDER    CLOUDY    38  22  52 VRB6G25   30.02R
PHILLIPS       NOT AVBL
ANTIGO         NOT AVBL
TOMAHAWK       NOT AVBL
MERRILL        NOT AVBL
$$

WIZ013-073-221800-
NORTHEAST WISCONSIN

CITY           SKY/WX    TMP DP  RH WIND       PRES   REMARKS
IRON MOUNTAIN  CLOUDY    40  24  53 NW21G29   29.95R
MARINETTE      CLOUDY    45  27  49 N15G22    29.94S
$$

WIZ017-030-035>037-045-221800-
CENTRAL WISCONSIN

CITY           SKY/WX    TMP DP  RH WIND       PRES   REMARKS
MEDFORD        NOT AVBL
WAUSAU         MOSUNNY   46  24  42 N13G25    29.99S
MOSINEE        NOT AVBL
MARSHFIELD     MOSUNNY   48  29  47 N14       30.02R
WISC RAPIDS    MOSUNNY   49  27  42 NW15      30.03S
STEVENS POINT  NOT AVBL
WAUPACA        NOT AVBL
SHAWANO        NOT AVBL
CLINTONVILLE   NOT AVBL
$$

WIZ038-039-048-051-221800-
FOX VALLEY

CITY           SKY/WX    TMP DP  RH WIND       PRES   REMARKS
NWS GREEN BAY  PTSUNNY   46  32  58 NW20G26   29.97S
APPLETON       PTSUNNY   46  28  49 NW17G24   29.98S
OSHKOSH        MOSUNNY   49  30  48 NW13      29.97S
FOND DU LAC    MOSUNNY   51  30  44 NW17G25   29.97S
$$

WIZ022-050-052-221800-
EAST CENTRAL WISCONSIN

CITY           SKY/WX    TMP DP  RH WIND       PRES   REMARKS
STURGEON BAY   CLOUDY    45  28  53 NW14      29.95S
MANITOWOC      NOT AVBL
SHEBOYGAN      MOSUNNY   49  31  49 NW18      29.95S
$$

LMZ563-521-522-541>543-221800-
LAKESHORE

STATION/POSITION TIME  TEMP    WIND        PRES    VSBY  WAVE
                       AIR SEA DIR/SP/G                  HT/PER
                 (UTC) (F)     (DEG/KT/KT) (MB)    (MI)  (FT/S)
SHEBOYGAN LKSHOR 1600   46     340/ 16/ 19 1014.5F
KEWAUNEE LKSHORE 1600   46     330/ 17/ 23 1014.5R
NORTHPORT PIER   1600   36     320/ 10/ 16 1013.5R
SISTER BAY LKSHO 1600   38     360/ 12/ 13   N/A
MENOMINEE LKSHOR 1600   41     330/ 22/ 27 1014.2S
$$



USA.gov is the U.S. government's official web portal to all federal, state and local government web resources and services.